User: anonymous   Login
Location: Newark
(51.0089°N, 21.5817°E)
Time: 22:01:09
(UTC+00:00)
Language:

XW-2F - Orbit

View from above orbital plane
View from above orbital plane
View from above satellite
View from above satellite

Ground track
Ground track

The orbit data is extracted from the following two-line orbital elements,

1 40910U 15049M   20052.55042683 +.00001163 +00000-0 +60888-4 0  9990
2 40910 097.4678 057.7305 0016068 051.7667 076.3986 15.17717476244608
Epoch (UTC): 21 February 2020 13:12:36
Eccentricity: 0.0016068
inclination: 97.4678°
perigee height: 501 km
apogee height: 524 km
right ascension of ascending node: 57.7305°
argument of perigee: 51.7667°
revolutions per day: 15.17717476
mean anomaly at epoch: 76.3986°
orbit number at epoch: 24460

The dashed part of the orbit path shows where the satellite is in the earth's shadow,  

DLR